Regional Weather Roundup
Issued by NWS Bismarck, ND

Home | Current Version | Previous Version | Text Only | Print | Product List | Glossary On
Versions: 1 2 3 4 5 6 7 8 9 10 11 12 13 14 15 16 17 18 19 20 21 22 23 24 25 26 27 28 29 30 31 32 33 34 35 36 37 38 39 40 41 42 43 44 45 46 47 48 49 50
000
ASUS43 KBIS 242010
RWRBIS

NWR BROADCAST TEXT
NATIONAL WEATHER SERVICE BISMARCK ND
200 PM CST FRI NOV 24 2017

NOTE: "FAIR" INDICATES FEW OR NO CLOUDS BELOW 12,000 FEET WITH NO
SIGNIFICANT WEATHER AND/OR OBSTRUCTIONS TO VISIBILITY.


CITY           SKY/WX    TMP DP  RH WIND       PRES   REMARKS
WILLISTON      SUNNY     52  31  44 NW20G29   29.72R
MINOT          SUNNY     51  32  48 W29G36    29.62R
MINOT AFB      SUNNY     50  33  52 NW23G35   29.60R
BISMARCK       SUNNY     55  38  52 W21G30    29.69R
DICKINSON      SUNNY     51  34  52 NW20      29.73R
GARRISON         N/A     49  37  63 W20G36    29.66R
HETTINGER ARPT SUNNY     50  35  56 NW24G32   29.77R
JAMESTOWN      SUNNY     50  38  63 NW26G37   29.57R
CARRINGTON     FAIR      48  41  76 NW28      29.59R
HAZEN          FAIR      52  37  58 W18G25    29.70R
LINTON           N/A     52  36  54 NW26G35   29.69R
MANDAN         FAIR      52  37  58 W24G33    29.68R
OAKES            N/A     50  37  62 NW23G29   29.59R
RUGBY          FAIR      46  36  66 NW22G29   29.55S
STANLEY        FAIR      48  36  61 NW22G32   29.68R
TIOGA          FAIR      46  39  76 W20G28    29.69R
WATFORD CITY   FAIR      50  34  53 NW18      29.72R
$$

CITY           SKY/WX    TMP DP  RH WIND       PRES   REMARKS
GRAND FORKS    SUNNY     45  37  73 NW15G25   29.50R
GRAND FORKS AF SUNNY     46  35  67 NW20G25   29.50R
DEVILS LAKE    SUNNY     45  35  68 W20       29.54R
FARGO          SUNNY     51  39  63 NW23G30   29.50R
CANDO          FAIR      46  34  61 W21G30    29.55R
CAVALIER       FAIR      45  34  65 NW17G28   29.46R
GRAFTON        FAIR      41  34  75 NW18      29.49R
GWINNER          N/A     52  37  58 NW28      29.57R
LANGDON        FAIR      43  37  81 W23       29.48R
ROLLA          FAIR      45  34  65 NW18G31   29.52R
WALHALLA       FAIR      45  34  65 NW17G28   29.46R
$$

CITY           SKY/WX    TMP DP  RH WIND       PRES   REMARKS
ABERDEEN       SUNNY     55  34  45 NW22G30   29.65R
MOBRIDGE       SUNNY     57  35  43 NW20G29   29.67R
BUFFALO          N/A     51  35  54 W26G33    29.75
RAPID CITY     SUNNY     54  24  31 NW33G41   29.84R
GLASGOW        MOSUNNY   48  31  51 NW12      29.78S
SIDNEY         SUNNY     52  33  48 NW18      29.76R
WOLF POINT     SUNNY     51  35  54 W17       29.78R
GLENDIVE       SUNNY     51  32  48 NW17      29.78F
MILES CITY     SUNNY     53  29  39 NW14      29.83F
BAKER          SUNNY     49  35  58 NW17G23   29.81R
$$

CITY           SKY/WX    TMP DP  RH WIND       PRES   REMARKS
BILLINGS       MOSUNNY   54  20  26 VRB3      29.85F
GREAT FALLS    SUNNY     44  20  38 W28G35    29.88R
REGINA         PTSUNNY   37  32  81 NW10      29.65R
ESTEVAN        PTSUNNY   45  32  61 W26G33    29.65R
$$





USA.gov is the U.S. government's official web portal to all federal, state and local government web resources and services.